This is the latest recevied weather packets stored in our database for station/object N7CEE-2. If no packets are shown the sender has not sent any weather packets the latest 10 day(s).
| Time | Temp. | Humidity | Pressure | Rain* | Wind** | Luminosity | Snow |
|---|---|---|---|---|---|---|---|
| 1777479149 | 23.89° C | 22% | 1017.7 hPa | 0 mm | - | 603 W/m² | - |
| 1777478847 | 23.89° C | 23% | 1017.7 hPa | 0 mm | - | 583 W/m² | - |
| 1777478542 | 24.44° C | 22% | 1017.7 hPa | 0 mm | - | 564 W/m² | - |
| 1777478240 | 23.89° C | 22% | 1017.6 hPa | 0 mm | - | 547 W/m² | - |
| 1777477936 | 23.33° C | 23% | 1017.6 hPa | 0 mm | - | 527 W/m² | - |
| 1777477632 | 23.33° C | 23% | 1017.8 hPa | 0 mm | - | 506 W/m² | - |
| 1777477329 | 23.33° C | 24% | 1017.9 hPa | 0 mm | - | 488 W/m² | - |
| 1777477025 | 22.78° C | 24% | 1017.9 hPa | 0 mm | - | 470 W/m² | - |
| 1777476723 | 22.78° C | 25% | 1017.9 hPa | 0 mm | - | 448 W/m² | - |
| 1777476419 | 23.33° C | 24% | 1018.1 hPa | 0 mm | - | 430 W/m² | - |
| 1777476115 | 22.78° C | 25% | 1017.9 hPa | 0 mm | - | 400 W/m² | - |
| 1777475805 | 22.78° C | 25% | 1017.9 hPa | 0 mm | - | 388 W/m² | - |
| 1777475502 | 22.22° C | 26% | 1018 hPa | 0 mm | - | 371 W/m² | - |
| 1777475198 | 22.22° C | 28% | 1017.9 hPa | 0 mm | - | 327 W/m² | - |
| 1777474894 | 21.11° C | 30% | 1018 hPa | 0 mm | - | 301 W/m² | - |
| 1777474589 | 21.67° C | 30% | 1018.1 hPa | 0 mm | - | 247 W/m² | - |
| 1777474287 | 20° C | 32% | 1017.8 hPa | 0 mm | - | 287 W/m² | - |
| 1777473983 | 20° C | 33% | 1017.9 hPa | 0 mm | - | 269 W/m² | - |
| 1777473681 | 19.44° C | 34% | 1017.8 hPa | 0 mm | - | 223 W/m² | - |
| 1777473377 | 18.89° C | 35% | 1017.8 hPa | 0 mm | - | 183 W/m² | - |
| 1777473073 | 18.33° C | 36% | 1017.9 hPa | 0 mm | - | 156 W/m² | - |
| 1777472770 | 17.78° C | 37% | 1017.7 hPa | 0 mm | - | 172 W/m² | - |
| 1777472466 | 17.78° C | 38% | 1017.7 hPa | 0 mm | - | 149 W/m² | - |
| 1777472163 | 17.78° C | 37% | 1017.5 hPa | 0 mm | - | 141 W/m² | - |
| 1777471858 | 17.22° C | 36% | 1017.7 hPa | 0 mm | - | 144 W/m² | - |
* Rain latest hour (hover to see other rain measurements)
** Current wind speed in m/s (hover to see current wind gust speed)